STARLINK-30246, 57615

Orbit data source: Space-Track

STARLINK-30246, 57615 is a payload satellite owned by SpaceX/Seattle (US) in LEO that was launched on Fri, 11 Aug 2023 UTC via an FALCON 9 launch vehicle from the Air Force Eastern Test Range (AFETR). Payload-class satellites include a variety of spacecraft equipped with specific instruments for various scientific and technological missions. These include communications satellites like Starlink; space stations such as the ISS; scientific satellites like the Hubble; Earth observation satellites from companies like Planet Labs, Umbra, and HawkEye 360; GPS; miniature CubeSats for education and research; and military/defense satellites.

Loading next visibility...
Identifier
57615, 2023-119P
Orbit
LEO
Country
Flag of USUS
Related business
Manufacturer
SpaceX/Seattle
Mission
Operational Commercial Communications
Bus & Motor
STARLINK V2M, Unknown motor
Mass
730 kg wet, ~700 kg dry
Launch date (UTC)
2023-08-11 (3 years ago)
Launch vehicle
FALCON 9
Launch site
Air Force Eastern Test Range (AFETR)
Object type
Payload
Rocket body
Debris
Shape & HBR
Box + 2 Pan, 17.7 m
Radar Cross Section
33.884 m², Large (>1 m²)

Expand to show TLE details & history
Last TLE update: 19 hours ago

TLE from 19 hours ago
0 STARLINK-30246
1 57615U 23119P   26094.62448513 -.00001372  00000-0 -40340-4 0  9994
2 57615  43.0004 295.0167 0001726 271.0435  89.0219 15.27563015147056
Epoch: 2026-04-04T14:59Z
TLE epoch observation values (Epoch: 2026-04-04T14:59:15.515Z)
Latitude
Longitude
-122.73953°
Altitude
482.855 km
Speed
7.626 km/s
True Right ascension
19h 40m 04s
True Declination
0° 00' 00"
Sunlit
Object was in daylight at epoch
Visualization orbit readout
Latitude
Unknown
Longitude
Unknown
Altitude
Unknown
Speed
Unknown
Apparent Right ascension
Unknown
Apparent Declination
Unknown
Sunlit
N/A
Visualization observer readout
Local Sidereal Time
15:27:52
Azimuth
Unknown
Elevation
Unknown
Doppler factor
Unknown
Orbital elements
Apogee altitude
486.23 km
Perigee altitude
483.86 km
Semi-major axis
6,863.182 km
Eccentricity
0.00017
Inclination
43.0004°
RAAN
295.0167°
Arg. of periapsis
271.0435°
True anomaly
89.04168°
Mean anomaly
89.0219°
Eccentric anomaly
89.03179°
Mean motion
3.81729 °/min
Orbital period
94.31 mins
BSTAR
-0.00004034
Loading maneuver chart data...
Computing Atmospheric mass density...
Loading historical data...
Loading historical data...
Loading historical data...
Loading historical data...
Loading historical data...
Loading historical data...
Loading historical data...

Documentation

Showing up to 5 results
|